Wind_Speed
3 3 4 4 4 3 3 3 3 4 4 4 4 4 4 4 4 4 4 5 5 5 5 5 4 4 4 4 4 4 4 4 4 5 4 4 4 4 5 5 5 5 6 6 6 7 7 7 7
2 3 4 4 3 3 3 3 3 4 4 4 4 4 4 4 4 4 4 4 5 5 5 5 5 5 5 4 5 6 5 5 5 5 5 5 5 6 7 6 6 7 7 7 7 7 7 8 8
3 3 3 3 3 3 3 3 3 3 4 4 5 4 4 4 4 5 5 5 6 6 6 6 5 5 5 5 5 6 5 5 5 5 5 6 7 7 7 7 7 8 8 8 8 8 8 8 8
4 3 4 4 4 4 4 3 3 4 4 4 5 5 4 4 5 5 5 6 6 6 6 6 6 6 5 5 5 5 5 5 5 6 6 6 7 7 8 8 8 8 8 9 8 8 8 8 8
5 4 4 5 5 5 5 4 4 4 3 3 4 5 5 5 5 5 5 5 6 6 6 6 6 6 6 6 5 6 6 6 6 6 6 6 7 7 7 8 9 8 8 8 9 9 9 9 9
6 6 6 6 6 6 5 5 5 5 4 4 4 5 5 5 5 5 5 5 6 6 6 7 7 7 7 7 6 7 7 6 6 7 7 7 7 8 8 8 9 9 9 9 9 10 10 10 9
7 7 7 7 7 6 6 6 6 6 5 5 5 5 5 5 5 5 6 6 6 6 6 7 7 6 7 7 7 7 7 7 7 7 8 8 8 8 9 9 9 10 10 10 10 11 10 10 11
8 8 8 8 8 7 7 7 7 7 6 6 6 6 6 5 5 6 6 6 6 6 6 6 6 6 6 7 7 8 8 8 8 8 8 8 8 9 9 10 10 10 10 10 11 11 12 12 12
8 8 8 8 8 8 8 9 8 8 8 7 7 6 6 6 6 6 7 7 6 6 6 5 5 6 6 7 7 7 7 7 7 8 8 8 8 8 9 10 10 10 11 11 11 12 12 12 13
7 7 8 8 8 8 8 9 9 9 8 8 8 7 6 6 6 6 6 6 6 6 5 5 5 6 6 6 6 7 7 8 8 8 8 8 9 9 10 10 11 11 11 11 12 12 12 13 13
8 8 8 8 8 8 8 9 9 8 8 8 8 8 7 7 7 7 6 7 7 6 6 6 6 6 6 6 7 7 7 8 8 8 8 9 9 10 10 11 11 11 11 11 11 12 13 13 13
7 8 9 8 8 8 8 8 8 8 8 8 9 9 9 8 8 7 7 7 7 7 6 6 6 6 7 7 7 7 8 8 8 9 9 9 10 10 11 11 11 11 12 12 12 13 12 12 12
7 7 8 8 9 8 8 8 8 8 8 8 8 8 9 9 9 8 8 8 7 7 7 7 7 7 8 8 8 8 8 8 9 9 9 10 10 11 11 11 11 11 12 12 12 12 12 12 12
7 7 7 8 8 7 7 7 7 8 8 8 8 8 8 8 8 8 8 8 8 8 7 7 7 8 8 8 8 8 9 9 9 9 10 10 11 11 12 12 12 12 12 12 12 12 12 12 11
8 7 8 8 8 8 8 8 7 8 8 8 8 8 8 8 8 8 8 8 8 8 8 8 8 8 7 7 8 8 9 9 10 10 11 11 11 12 12 12 12 11 12 12 12 12 12 11 12
8 8 8 8 8 8 9 9 8 8 8 8 8 8 9 9 9 9 9 9 9 9 9 9 9 9 9 9 9 8 9 9 10 10 10 11 12 12 12 11 11 11 11 11 11 12 12 12 13
9 9 9 9 9 9 10 9 9 9 8 8 9 9 9 9 9 9 10 10 10 10 10 10 9 10 10 10 9 9 9 10 10 10 11 11 11 11 11 11 10 11 11 11 11 12 12 12 12
10 10 10 10 10 10 11 10 9 9 9 9 10 10 10 9 10 10 10 10 10 10 10 11 10 10 10 10 10 10 11 11 11 11 11 11 11 10 10 10 10 11 11 11 12 12 12 12 12
11 11 10 11 11 11 11 10 10 10 10 10 10 11 10 10 11 11 11 11 11 10 11 11 11 11 11 11 11 12 12 12 11 11 11 11 11 11 11 11 11 11 12 12 12 12 12 12 12
12 11 11 12 12 12 11 11 11 11 11 11 11 11 11 11 11 12 12 11 11 11 11 12 12 12 12 12 12 12 12 12 12 12 12 12 12 12 12 11 12 12 12 12 12 12 12 13 13
13 12 12 12 13 13 13 12 12 12 12 12 12 12 12 11 12 12 12 12 12 12 12 13 12 12 12 13 12 13 13 12 12 12 12 12 12 12 12 12 12 13 13 12 12 13 13 13 14
13 13 13 13 14 13 13 13 12 13 13 13 13 13 13 13 13 13 13 13 13 13 13 14 14 14 13 13 13 13 12 12 12 12 12 13 13 13 13 13 13 13 13 14 14 14 14 14 15
14 14 14 14 15 14 14 14 13 13 14 14 13 14 14 14 14 14 14 14 14 14 14 14 14 14 14 14 14 14 14 13 13 13 14 14 14 14 14 14 15 15 15 15 15 15 15 16 16
14 15 15 15 15 14 13 14 12 12 13 13 13 13 13 13 14 14 14 14 14 14 15 15 14 14 15 15 14 14 15 15 15 15 15 15 15 15 15 15 16 17 17 17 17 17 17 17 18
15 16 16 15 15 14 13 14 12 12 12 12 13 13 13 13 13 13 14 14 14 14 14 14 15 15 15 15 15 16 16 16 16 16 16 16 17 16 16 17 17 18 18 19 19 19 18 19 19
16 16 16 15 15 13 13 13 12 12 12 12 13 13 13 13 13 14 14 14 14 14 14 14 15 15 16 16 17 17 17 17 17 17 17 18 18 18 19 19 19 19 20 20 20 20 21 21 21
16 15 15 15 15 13 13 13 12 12 12 13 13 14 14 13 14 14 14 14 14 15 15 15 16 16 16 17 18 19 18 18 18 18 19 19 19 20 20 20 20 20 20 21 21 22 22 22 22
16 16 16 16 16 15 14 13 13 13 13 13 14 14 14 14 14 14 14 15 15 16 16 16 17 17 17 18 18 19 19 19 20 20 20 20 20 21 21 21 21 22 22 22 23 23 23 23 23
16 17 17 17 17 18 17 15 14 14 15 15 15 16 15 15 16 16 16 16 16 17 17 17 17 18 18 18 19 20 20 20 20 21 21 22 22 22 22 22 23 23 23 24 24 24 24 24 24
18 18 18 19 19 19 19 17 16 16 16 17 17 17 17 17 17 17 17 17 17 18 18 18 19 19 19 19 20 21 21 21 21 22 22 23 23 23 23 24 24 24 24 25 25 25 25 25 25
Wind_Direction
237 239 225 216 215 214 206 206 215 222 228 224 230 235 238 246 246 246 245 246 252 255 255 253 251 257 262 267 279 287 291 297 298 300 296 288 290 290 286 281 277 273 269 268 268 267 268 263 261
240 234 221 220 218 225 232 236 224 226 230 233 232 240 249 253 245 244 247 250 251 255 257 255 255 258 258 264 280 287 290 293 297 304 296 288 289 287 285 284 284 278 272 270 269 267 267 263 260
248 237 229 230 226 232 241 236 230 222 226 231 236 242 250 252 252 256 257 259 255 257 256 253 254 257 260 266 277 284 284 285 289 294 300 294 288 287 285 283 283 278 272 270 266 262 263 263 262
247 243 241 236 232 235 244 241 239 237 228 231 237 245 250 254 258 261 258 261 256 256 254 251 251 255 260 266 273 276 280 281 284 286 291 294 295 291 283 279 281 279 276 274 268 262 261 263 263
246 249 247 238 237 243 249 247 241 249 242 243 248 251 253 256 258 262 260 261 258 255 250 251 252 256 260 263 269 275 278 283 287 287 289 291 292 293 288 284 282 280 277 280 274 267 266 265 263
248 251 251 249 247 249 251 244 242 252 247 255 252 257 258 257 256 259 260 264 264 262 255 253 255 260 263 265 270 274 278 284 288 290 292 292 290 288 285 284 281 278 278 283 280 271 268 265 263
248 250 251 249 250 252 254 249 251 258 250 253 254 256 256 255 258 255 257 261 263 260 260 258 255 255 257 262 265 269 275 283 285 287 288 290 291 289 287 284 284 281 281 281 280 273 270 269 267
248 250 251 250 251 255 256 253 257 256 249 252 253 255 258 260 261 258 257 259 260 259 262 260 257 256 256 257 261 267 275 279 281 284 285 287 289 288 286 286 287 288 283 279 274 271 267 268 266
249 249 248 248 248 253 256 256 256 252 247 248 250 256 259 264 266 261 255 252 257 258 259 263 259 259 261 261 261 270 272 274 278 282 284 287 288 287 285 287 287 289 285 279 274 268 264 265 266
247 248 246 246 246 249 254 257 258 250 246 249 251 255 256 259 260 255 252 249 249 254 255 261 262 264 264 264 268 272 270 270 274 280 281 283 285 285 286 287 285 286 283 276 269 266 267 265 266
247 244 244 245 248 251 256 258 257 251 246 247 250 250 248 255 256 248 248 248 248 253 253 258 259 263 265 264 269 272 275 274 274 277 279 282 283 285 287 287 285 283 280 276 267 265 264 263 262
249 244 247 247 251 252 256 258 255 253 252 251 250 247 247 251 249 250 249 249 251 254 257 257 256 261 264 265 266 272 277 280 280 280 280 284 286 286 287 286 284 283 281 282 282 279 271 262 264
246 244 248 254 255 256 255 253 254 256 252 255 252 247 248 247 246 247 250 252 253 254 256 254 256 258 263 265 266 270 275 279 281 283 283 284 285 287 288 287 286 284 283 282 283 282 277 270 270
247 248 252 257 256 252 252 248 249 250 251 254 254 249 249 248 248 248 251 254 255 253 250 254 256 257 263 265 267 268 275 280 283 285 286 286 287 288 289 290 288 286 284 280 277 277 277 272 270
244 249 254 255 255 256 255 253 251 252 252 255 258 254 255 256 255 256 256 253 252 254 254 258 260 261 263 267 272 272 277 280 283 284 284 285 287 288 290 291 288 284 284 283 279 276 274 269 269
250 253 256 259 258 257 258 258 257 258 256 260 261 258 258 260 258 258 258 255 252 254 258 262 264 264 264 269 271 275 278 280 282 285 288 291 291 291 292 291 289 287 285 284 282 279 274 270 269
257 260 260 259 257 255 252 253 256 258 262 263 263 260 258 258 258 259 258 256 252 253 256 260 265 267 271 273 272 273 277 281 283 284 289 292 294 294 292 290 289 290 289 288 285 281 277 273 271
257 259 260 259 257 254 253 255 255 256 261 263 260 257 257 259 259 260 260 259 258 256 257 259 263 267 271 274 274 272 275 278 281 285 290 292 290 288 288 288 288 289 290 289 286 281 277 273 272
254 255 256 255 256 256 255 258 259 260 261 263 261 259 260 260 261 260 261 261 259 256 255 257 262 265 266 273 276 275 276 276 277 282 288 290 288 285 284 287 287 288 288 290 289 283 276 273 270
253 253 254 255 257 257 257 258 260 262 262 263 262 263 264 263 263 260 259 261 261 263 263 261 263 265 267 271 274 275 275 275 275 278 285 289 287 285 285 286 286 284 286 288 290 287 278 272 272
254 254 255 257 259 258 259 259 260 262 261 262 263 264 265 266 266 262 260 261 262 263 265 265 265 266 268 271 273 272 271 273 274 278 282 285 285 286 286 285 283 282 283 285 288 288 281 274 273
255 255 255 257 259 259 259 258 258 260 260 260 261 263 264 265 265 265 265 264 264 265 266 265 265 266 266 268 270 270 268 271 275 279 282 283 283 285 286 286 284 283 282 282 285 286 284 277 274
255 255 257 259 259 261 262 264 259 262 259 261 262 263 265 266 266 266 265 264 265 265 266 266 264 264 264 265 268 269 269 270 274 278 279 280 281 284 284 286 286 284 283 283 283 284 283 280 278
253 255 256 259 260 262 261 266 262 264 264 262 263 264 265 267 268 264 262 263 264 265 264 265 264 264 264 265 266 268 268 269 274 280 282 283 281 282 284 284 285 284 283 282 282 281 282 282 279
253 253 256 258 261 267 266 267 268 267 268 266 266 265 264 268 270 267 265 264 263 263 263 263 265 264 265 266 264 265 269 274 277 279 282 284 283 283 285 285 285 284 284 282 281 281 281 281 280
255 255 258 262 267 269 266 267 269 269 267 265 265 266 267 270 271 269 268 267 265 263 263 263 263 263 265 265 266 268 271 274 276 279 283 286 285 285 287 287 286 284 283 282 281 280 281 280 279
252 254 257 260 263 266 264 266 268 271 269 269 268 269 271 272 271 270 267 267 267 266 265 266 266 264 264 265 266 269 272 273 275 278 282 286 286 285 287 286 285 285 284 282 281 280 280 279 278
251 253 256 259 263 265 265 267 269 272 273 272 271 271 272 270 269 268 268 268 268 268 267 268 269 268 267 268 268 268 271 274 275 278 281 284 286 285 285 285 284 284 283 283 282 280 279 278 277
251 253 257 260 263 265 267 270 269 271 273 273 272 271 272 271 271 270 269 270 272 271 270 270 268 269 270 271 270 270 273 276 277 279 281 284 286 286 285 284 283 283 283 283 283 282 280 278 277
252 254 257 260 264 266 270 270 272 272 271 272 270 271 272 271 272 272 272 272 273 274 272 270 271 270 270 272 273 275 277 278 279 280 281 283 284 285 285 284 283 283 283 284 283 281 279 277 277
Height
5849 5849 5850 5852 5853 5853 5853 5854 5854 5855 5856 5856 5857 5857 5858 5859 5860 5863 5861 5860 5861 5861 5862 5862 5862 5863 5863 5863 5864 5864 5864 5864 5864 5863 5863 5864 5864 5864 5865 5865 5865 5866 5866 5866 5867 5867 5868 5868 5868
5849 5849 5851 5852 5852 5853 5854 5854 5854 5855 5856 5856 5856 5857 5857 5858 5858 5859 5859 5860 5860 5860 5861 5861 5861 5862 5862 5862 5863 5863 5863 5863 5863 5863 5863 5863 5863 5863 5864 5864 5864 5864 5865 5865 5865 5866 5866 5866 5867
5849 5849 5851 5852 5852 5853 5854 5854 5854 5854 5855 5856 5856 5856 5857 5857 5858 5858 5859 5859 5859 5860 5860 5860 5861 5861 5861 5862 5862 5862 5862 5862 5862 5862 5862 5862 5862 5862 5862 5862 5863 5863 5863 5863 5863 5864 5864 5865 5865
5849 5850 5851 5852 5851 5852 5853 5853 5854 5854 5854 5855 5855 5856 5856 5857 5857 5857 5858 5858 5859 5859 5859 5859 5860 5860 5860 5861 5861 5861 5861 5861 5861 5861 5861 5861 5861 5861 5861 5861 5861 5861 5861 5861 5862 5862 5862 5863 5863
5848 5849 5851 5851 5851 5852 5852 5852 5853 5854 5854 5854 5855 5855 5855 5856 5856 5856 5857 5857 5858 5858 5858 5858 5859 5859 5859 5859 5859 5859 5859 5859 5859 5859 5859 5859 5859 5859 5859 5859 5859 5860 5860 5860 5860 5860 5860 5861 5861
5848 5849 5850 5850 5850 5851 5851 5852 5852 5853 5853 5854 5854 5854 5854 5855 5855 5855 5856 5856 5857 5857 5857 5857 5857 5858 5858 5858 5858 5858 5858 5858 5858 5858 5858 5858 5858 5858 5858 5858 5858 5858 5857 5858 5857 5858 5858 5858 5859
5847 5848 5848 5849 5849 5850 5851 5851 5852 5852 5852 5853 5853 5853 5853 5854 5854 5855 5855 5855 5856 5856 5856 5856 5856 5856 5856 5857 5857 5857 5857 5857 5857 5857 5857 5857 5857 5856 5856 5856 5856 5856 5856 5856 5856 5855 5856 5856 5857
5845 5847 5847 5848 5848 5849 5850 5850 5850 5851 5851 5852 5852 5852 5852 5853 5853 5853 5854 5854 5854 5854 5854 5854 5854 5855 5855 5855 5855 5855 5855 5855 5855 5855 5855 5855 5855 5855 5854 5854 5854 5854 5854 5853 5853 5853 5853 5854 5854
5844 5846 5846 5846 5847 5848 5848 5849 5849 5850 5850 5850 5851 5851 5851 5851 5852 5852 5852 5853 5853 5853 5853 5853 5853 5853 5853 5853 5853 5854 5854 5854 5854 5854 5854 5853 5853 5853 5852 5852 5852 5852 5851 5851 5851 5850 5851 5851 5851
5843 5844 5845 5845 5846 5846 5846 5847 5848 5848 5848 5849 5849 5850 5850 5850 5850 5850 5851 5851 5851 5852 5852 5852 5852 5852 5852 5852 5852 5852 5852 5852 5852 5852 5852 5852 5851 5851 5850 5850 5850 5849 5849 5848 5848 5848 5848 5849 5849
5842 5843 5843 5843 5844 5844 5845 5845 5846 5846 5847 5847 5848 5848 5848 5849 5848 5849 5849 5850 5850 5850 5850 5850 5851 5851 5850 5851 5851 5851 5851 5851 5850 5850 5850 5850 5849 5849 5848 5848 5847 5847 5846 5846 5845 5845 5845 5846 5846
5841 5841 5841 5842 5842 5843 5843 5843 5844 5844 5845 5845 5846 5846 5847 5847 5847 5847 5848 5848 5848 5848 5849 5849 5849 5849 5849 5849 5849 5849 5849 5849 5848 5848 5848 5847 5847 5846 5846 5845 5845 5844 5844 5843 5843 5843 5843 5842 5843
5839 5839 5840 5840 5840 5841 5841 5842 5842 5843 5843 5844 5844 5844 5845 5845 5846 5846 5846 5846 5846 5847 5847 5847 5847 5847 5847 5847 5847 5847 5847 5847 5846 5846 5845 5845 5845 5844 5843 5843 5842 5841 5841 5840 5840 5840 5840 5839 5839
5837 5838 5838 5839 5839 5839 5840 5840 5841 5841 5842 5842 5842 5843 5843 5844 5844 5844 5844 5844 5844 5845 5845 5845 5845 5845 5845 5845 5845 5845 5845 5845 5844 5844 5843 5842 5842 5841 5840 5840 5839 5838 5837 5837 5837 5836 5837 5837 5837
5836 5837 5837 5837 5838 5838 5839 5839 5840 5840 5840 5840 5841 5841 5841 5842 5842 5842 5842 5842 5843 5842 5843 5843 5843 5843 5843 5843 5843 5843 5843 5842 5842 5841 5841 5840 5839 5838 5837 5836 5836 5835 5834 5834 5833 5833 5833 5833 5834
5834 5835 5836 5836 5836 5837 5839 5839 5839 5838 5839 5839 5839 5840 5840 5840 5840 5840 5840 5841 5841 5841 5841 5841 5841 5841 5841 5841 5841 5841 5840 5840 5840 5839 5838 5837 5836 5835 5834 5833 5833 5832 5831 5831 5830 5830 5830 5830 5830
5833 5834 5834 5835 5835 5835 5836 5837 5837 5837 5837 5838 5838 5838 5838 5838 5838 5838 5838 5839 5839 5839 5839 5839 5839 5839 5839 5839 5839 5838 5838 5837 5837 5836 5835 5834 5833 5832 5832 5831 5830 5829 5829 5828 5828 5827 5827 5827 5827
5831 5832 5832 5833 5833 5834 5834 5835 5835 5835 5835 5836 5836 5836 5836 5836 5836 5836 5836 5836 5836 5837 5837 5837 5837 5837 5837 5836 5836 5836 5835 5835 5834 5833 5832 5832 5831 5830 5829 5828 5827 5827 5826 5825 5825 5824 5824 5823 5823
5829 5829 5830 5830 5831 5832 5832 5833 5833 5833 5833 5833 5834 5834 5834 5833 5833 5833 5833 5834 5834 5834 5834 5834 5835 5834 5834 5834 5833 5833 5833 5832 5832 5831 5830 5829 5828 5827 5826 5826 5825 5824 5823 5823 5822 5821 5820 5820 5820
5826 5827 5828 5828 5828 5829 5830 5830 5831 5831 5831 5831 5831 5831 5831 5831 5831 5831 5831 5831 5831 5831 5831 5831 5831 5831 5831 5831 5831 5830 5830 5829 5828 5828 5827 5826 5825 5824 5824 5823 5822 5821 5821 5820 5819 5817 5817 5817 5817
5823 5824 5825 5826 5826 5827 5827 5828 5828 5828 5828 5828 5828 5828 5828 5828 5828 5828 5828 5828 5828 5828 5828 5828 5828 5828 5828 5828 5828 5827 5826 5826 5825 5824 5824 5823 5822 5821 5821 5820 5819 5818 5818 5817 5816 5815 5814 5814 5814
5821 5821 5822 5822 5823 5824 5825 5825 5826 5825 5825 5825 5825 5825 5825 5825 5825 5825 5825 5825 5824 5825 5825 5825 5825 5825 5824 5824 5824 5824 5823 5823 5822 5821 5820 5820 5819 5818 5817 5816 5816 5815 5814 5813 5812 5811 5810 5810 5810
5818 5818 5819 5819 5820 5821 5821 5822 5823 5822 5822 5822 5822 5822 5822 5822 5821 5821 5821 5821 5821 5821 5821 5821 5821 5821 5821 5821 5821 5820 5820 5819 5819 5818 5817 5816 5815 5814 5813 5813 5812 5811 5810 5810 5809 5808 5807 5806 5806
5814 5815 5815 5816 5816 5818 5818 5818 5820 5819 5819 5818 5818 5818 5818 5818 5818 5817 5817 5817 5817 5817 5817 5817 5817 5817 5817 5817 5817 5817 5816 5815 5815 5814 5813 5812 5811 5811 5810 5809 5808 5807 5806 5805 5804 5804 5803 5802 5801
5811 5812 5812 5812 5813 5814 5815 5815 5816 5816 5815 5815 5815 5814 5814 5814 5814 5813 5813 5813 5813 5813 5813 5813 5813 5813 5813 5813 5813 5813 5812 5811 5811 5810 5810 5808 5807 5806 5805 5804 5803 5802 5801 5801 5800 5799 5798 5797 5796
5807 5808 5810 5810 5810 5811 5811 5811 5813 5812 5812 5811 5811 5811 5811 5811 5810 5810 5809 5809 5809 5809 5809 5809 5809 5809 5809 5809 5809 5808 5808 5807 5807 5806 5805 5804 5803 5802 5801 5799 5798 5797 5796 5795 5794 5793 5792 5791 5790
5803 5804 5805 5806 5806 5807 5807 5808 5809 5809 5808 5808 5808 5808 5807 5807 5806 5806 5805 5805 5805 5805 5805 5804 5804 5804 5804 5804 5804 5804 5803 5802 5802 5801 5800 5799 5798 5797 5796 5794 5793 5792 5791 5789 5788 5787 5786 5785 5784
5800 5800 5801 5802 5801 5802 5804 5804 5806 5805 5805 5805 5804 5804 5803 5803 5802 5802 5801 5801 5801 5800 5800 5800 5800 5799 5800 5799 5799 5799 5798 5797 5797 5796 5795 5794 5793 5791 5790 5788 5787 5786 5784 5783 5782 5781 5780 5778 5777
5796 5797 5797 5797 5798 5798 5799 5802 5801 5801 5801 5801 5800 5800 5799 5798 5798 5797 5797 5797 5796 5796 5795 5795 5795 5794 5794 5794 5794 5794 5793 5792 5792 5791 5789 5788 5787 5786 5784 5782 5780 5779 5778 5776 5775 5773 5772 5771 5771
5790 5792 5793 5793 5794 5794 5794 5798 5797 5796 5796 5796 5795 5795 5794 5794 5793 5793 5792 5792 5791 5791 5790 5790 5790 5789 5789 5789 5788 5788 5787 5787 5786 5785 5783 5782 5781 5779 5777 5775 5774 5772 5770 5769 5767 5766 5765 5764 5764